EW2219 Weather Reports


time (UTC)temp
C
wind
direction
speed
KPH
gust
KPH
rain 1hr
cm
rain 24hr
cm
rain mn
cm
humidity
%
barometer
mb
20260504000915 11 206 9.7 16.1 0.00 0.00 0.00 70 1007.3
20260503235415 11 220 6.4 11.3 0.00 0.00 0.00 68 1007.4
20260503233915 11 232 8.0 12.9 0.00 0.00 0.00 74 1007.6
20260503232415 11 245 3.2 8.0 0.00 0.00 0.00 77 1007.7
20260503230915 11 207 6.4 12.9 0.00 0.00 0.00 79 1007.9
20260503225415 10 233 8.0 12.9 0.00 0.00 0.00 85 1007.8
20260503223915 10 229 6.4 8.0 0.00 0.00 0.00 91 1007.7
20260503222415 10 251 4.8 6.4 0.00 0.00 0.00 80 1008.1
20260503215415 11 264 8.0 14.5 0.00 0.00 0.00 71 1008.5
20260503213915 12 259 17.7 22.5 0.00 0.00 0.00 67 1008.1
20260503212415 12 275 9.7 12.9 0.00 0.00 0.00 66 1007.8
20260503210915 12 226 6.4 8.0 0.00 0.00 0.00 69 1007.6
20260503205415 12 228 12.9 27.4 0.00 0.00 0.00 69 1007.7
20260503203915 12 226 9.7 12.9 0.00 0.00 0.00 69 1007.8
20260503202415 12 219 17.7 24.1 0.00 0.00 0.00 70 1007.9
20260503200915 12 187 9.7 12.9 0.00 0.00 0.00 70 1008.1
20260503195415 12 226 11.3 19.3 0.00 0.00 0.00 67 1008.3
20260503193915 12 216 12.9 22.5 0.00 0.00 0.00 67 1008.4
20260503192415 12 216 14.5 22.5 0.00 0.00 0.00 67 1008.7
20260503183915 13 207 9.7 12.9 0.00 0.00 0.00 64 1009.5
20260503182415 13 204 19.3 37.0 0.00 0.00 0.00 65 1009.4
20260503180915 13 213 19.3 33.8 0.00 0.00 0.00 64 1009.7
20260503175414 12 214 12.9 22.5 0.00 0.00 0.00 65 1009.7
20260503173915 13 279 14.5 24.1 0.00 0.00 0.00 57 1010.1
20260503172415 12 234 12.9 17.7 0.00 0.00 0.00 64 1010.0
20260503170915 11 231 16.1 24.1 0.00 0.00 0.00 67 1010.2
20260503150915 11 221 9.7 19.3 0.00 0.00 0.00 59 1011.9
20260503080914 -1 202 0.0 0.0 0.00 0.00 0.00 100 1011.8
20260503052414 0 223 0.0 0.0 0.00 0.00 0.00 100 1012.4
20260503050915 0 223 0.0 0.0 0.00 0.00 0.00 100 1012.6
20260503045414 0 223 0.0 0.0 0.00 0.00 0.00 100 1012.6
20260503043915 0 237 0.0 1.6 0.00 0.00 0.00 100 1012.7
20260503042414 0 257 0.0 0.0 0.00 0.00 0.00 100 1012.8
20260503040914 0 210 0.0 0.0 0.00 0.00 0.00 100 1012.8
20260503035414 0 222 0.0 1.6 0.00 0.00 0.00 100 1012.8
20260503033914 0 209 1.6 1.6 0.00 0.00 0.00 100 1013.0
20260503032414 0 224 0.0 1.6 0.00 0.00 0.00 100 1013.0
20260503025414 1 115 0.0 0.0 0.00 0.00 0.00 100 1013.1
20260503023915 1 115 0.0 0.0 0.00 0.00 0.00 100 1013.2
20260503022414 2 115 0.0 0.0 0.00 0.00 0.00 100 1013.4
20260503020914 2 115 0.0 0.0 0.00 0.00 0.00 100 1013.4
20260503015414 2 115 0.0 0.0 0.00 0.00 0.00 100 1013.4
20260503013914 2 115 0.0 0.0 0.00 0.00 0.00 100 1013.3
20260503012414 2 115 0.0 0.0 0.00 0.00 0.00 100 1013.4
20260503010914 2 115 0.0 0.0 0.00 0.00 0.00 100 1013.4
20260503005414 2 115 0.0 0.0 0.00 0.00 0.00 100 1013.2